[[{"header":{"parameterUnit":"m.s-1","parameterCategory":1,"la1":30.2991,"la2":30.254,"lo1":-89.0895,"lo2":-89.0444,"dy":0.0017,"dx":0.0017,"nx":28,"ny":28,"refTime":"2025-09-13T21:00:00:Z","depth":0,"parameterNumber":2,"parameterNumberName":"U-component_of_WINDS"},"data":[0,0,0,0,0,0,0,0,0,0,0,0,0,0,0,0,0,0,0,0,0,0,0,0,0,0,0,0,0,0,0,0,0,0,0,0,0,0,0,0,0,0,0,0,0,0,0,0,0,0,0,0,0,0,0,0,0,0,1.2247,1.2248,0,1.2356,1.2357,1.2358,1.24,1.24,1.24,1.2399,1.2511,1.2514,1.2518,0,0,0,0,0,0,0,0,0,0,0,0,0,1.2075,1.2078,1.2247,1.2248,1.2249,1.2355,1.2357,1.2358,1.24,1.24,1.24,1.2399,1.251,1.2514,1.2518,0,0,0,0,0,0,0,0,0,0,0,0,0,1.2163,1.2079,1.2246,1.2283,1.2288,1.2355,1.2357,1.2359,1.24,1.24,1.24,1.2399,1.2509,1.2514,1.2519,1.2558,0,0,1.2533,1.2536,0,0,0,0,0,0,0,0,1.2158,1.2169,1.2276,1.2281,1.2286,1.2364,1.2337,1.2425,1.2401,1.2358,1.2399,1.2399,1.2463,1.2471,1.2493,1.2563,1.2568,1.2534,1.2537,1.2539,1.254,0,0,0,0,0,0,0,1.2152,1.2165,1.229,1.2278,1.2284,1.2294,1.2306,1.2354,1.2411,1.2361,1.2365,1.2377,1.2465,1.2488,1.2496,1.2569,1.2534,1.2538,1.2541,1.2543,1.2677,1.2678,0,0,0,0,0,0,1.214,1.2159,1.2286,1.2293,1.2219,1.2297,1.2311,1.2339,1.2411,1.2421,1.2377,1.2379,1.248,1.249,1.25,1.255,1.2539,1.2544,1.2546,1.2676,1.2677,1.2678,0,0,0,0,0,0,1.2136,1.2151,1.2282,1.2227,1.2245,1.2301,1.2332,1.2342,1.2365,1.2423,1.2433,1.239,1.248,1.2493,1.2543,1.2555,1.2546,1.255,1.2676,1.2677,1.2677,1.2651,0,0,0,0,0,0,1.2131,1.2149,1.2164,1.2227,1.2247,1.2323,1.2333,1.2344,1.2373,1.2376,1.2438,1.2448,1.248,1.2535,1.2548,1.2561,1.2554,1.2675,1.2676,1.2677,1.2651,1.2651,1.2651,0,0,0,0,0,1.2124,1.2153,1.2165,1.218,1.2268,1.2324,1.2335,1.2372,1.2374,1.239,1.2427,1.2446,1.2551,1.254,1.2554,1.2569,1.2674,1.2676,1.2677,1.2651,1.2651,1.2651,0,0,0,0,0,0,1.209,1.2162,1.2176,1.2226,1.2268,1.2331,1.2352,1.2371,1.2414,1.2415,1.246,1.2473,1.2519,1.255,1.2536,1.2611,1.2614,1.2618,1.259,1.259,1.259,1.2581,1.2558,0,0,0,0,0,1.2088,1.2127,1.2188,1.2226,1.2246,1.2295,1.2321,1.2346,1.2392,1.241,1.2451,1.2495,1.2538,1.2566,1.2609,1.2656,1.267,1.2673,1.2673,1.2673,1.2676,1.2702,1.2705,1.2682,1.2682,1.2682,0,0,1.2085,1.2129,1.2151,1.222,1.2256,1.2295,1.231,1.2351,1.2381,1.2417,1.2466,1.2498,1.255,1.2598,1.2622,1.2625,1.2685,1.2674,1.2674,1.2677,1.2704,1.2706,1.2708,1.2683,1.2683,1.2683,0,0,1.2098,1.2136,1.2171,1.2207,1.2261,1.2294,1.2302,1.2362,1.2384,1.2434,1.2462,1.2498,1.2571,1.2607,1.2635,1.2662,1.268,1.2674,1.2674,1.2699,1.2701,1.2703,1.2712,1.2715,1.2677,1.2677,1.2677,0,1.2087,1.2148,1.2187,1.2227,1.2256,1.229,1.2326,1.2359,1.2424,1.2444,1.2446,1.2539,1.2576,1.2633,1.264,1.2661,1.2672,1.2667,1.2697,1.27,1.2702,1.2711,1.2715,1.2676,1.2676,1.2677,1.2677,0,1.2131,1.2173,1.2195,1.2257,1.2289,1.2327,1.2372,1.2399,1.2421,1.2453,1.2504,1.255,1.2603,1.2618,1.264,1.2679,1.2679,1.2689,1.2693,1.2702,1.2712,1.2716,1.2675,1.2675,1.2675,1.2676,0,0,1.2126,1.221,1.2217,1.2245,1.2308,1.2341,1.238,1.2431,1.2454,1.2498,1.2531,1.2592,1.2602,1.2634,1.266,1.2682,1.27,1.269,1.2692,1.269,1.2745,1.2737,1.274,1.2713,1.2714,1.2715,1.2741,0,1.2148,1.222,1.2256,1.2312,1.235,1.2383,1.2417,1.2459,1.2489,1.2527,1.2561,1.2604,1.2613,1.2632,1.2656,1.2693,1.2712,1.2692,1.2745,1.2746,1.2731,1.2745,1.2737,1.2759,1.2745,1.2745,1.2746,0,1.2183,1.2227,1.2286,1.2344,1.2361,1.2391,1.2441,1.2476,1.2524,1.2545,1.258,1.2606,1.2648,1.2649,1.2708,1.2693,1.2717,1.2739,1.274,1.2747,1.2746,1.2752,1.2767,1.277,1.2752,1.2752,1.2751,0,1.2173,1.2246,1.2292,1.2315,1.2383,1.2403,1.2433,1.248,1.2509,1.2552,1.2571,1.2619,1.2645,1.2682,1.272,1.2717,1.2775,1.2779,1.2793,1.2792,1.2804,1.2802,1.2823,1.2819,1.2819,1.2819,1.2819,0,1.2193,1.2228,1.2288,1.2315,1.2356,1.2397,1.2436,1.2467,1.2509,1.2544,1.2575,1.2606,1.2655,1.2692,1.2722,1.2766,1.2778,1.2796,1.2804,1.2793,1.2791,1.2809,1.2809,1.282,1.282,1.282,1.282,0,1.2189,1.223,1.2281,1.2342,1.2358,1.2384,1.2436,1.2464,1.2496,1.2539,1.2552,1.2603,1.2649,1.269,1.2751,1.2771,1.2816,1.2826,1.28,1.2804,1.2815,1.2814,1.2848,1.2855,1.2847,1.2847,1.2847,0,1.2199,1.2227,1.229,1.2315,1.2344,1.2384,1.2413,1.2455,1.2484,1.254,1.2561,1.261,1.265,1.2722,1.2764,1.2811,1.2822,1.2831,1.2829,1.2818,1.2822,1.282,1.2822,1.283,1.283,1.283,1.283,0,1.2212,1.2231,1.2272,1.232,1.2354,1.2394,1.2435,1.2453,1.2503,1.2534,1.2581,1.2612,1.2674,1.2722,1.2773,1.2804,1.2825,1.283,1.2836,1.2825,1.2809,1.2818,1.2798,1.2829,1.2829,1.2829,1.2829,1.2829,1.2216,1.2241,1.229,1.2334,1.2369,1.2407,1.2436,1.2472,1.2512,1.2565,1.2588,1.2635,1.2683,1.2754,1.2784,1.2822,1.2826,1.2835,1.2837,1.2838,1.2836,1.2803,1.2831,1.2832,1.2832,1.2832,1.2832,0,1.223,1.2263,1.2303,1.2359,1.2394,1.2411,1.2457,1.2485,1.2527,1.2569,1.2608,1.2662,1.2708,1.2754,1.2802,1.2824,1.2835,1.2835,1.2834,1.2841,1.2829,1.2819,1.2825,1.2825,1.2825,1.2825,1.2825,1.2825,1.2242,1.2287,1.2312,1.2374,1.2407,1.2454,1.2478,1.2513,1.2546,1.2605,1.2643,1.2673,1.2717,1.2769,1.2811,1.2824,1.284,1.2838,1.2852,1.2841,1.2841,1.2841,1.2832,1.2841,1.2841,1.2861,1.2861,1.2861]},{"header":{"parameterUnit":"m.s-1","parameterCategory":1,"la1":30.2991,"la2":30.254,"lo1":-89.0895,"lo2":-89.0444,"dy":0.0017,"dx":0.0017,"nx":28,"ny":28,"refTime":"2025-09-13T21:00:00:Z","depth":0,"parameterNumber":3,"parameterNumberName":"V-component_of_WINDS"},"data":[0,0,0,0,0,0,0,0,0,0,0,0,0,0,0,0,0,0,0,0,0,0,0,0,0,0,0,0,0,0,0,0,0,0,0,0,0,0,0,0,0,0,0,0,0,0,0,0,0,0,0,0,0,0,0,0,0,0,2.2673,2.2673,0,2.2596,2.2595,2.2594,2.2561,2.2561,2.2561,2.2561,2.2476,2.2474,2.2471,0,0,0,0,0,0,0,0,0,0,0,0,0,2.2785,2.2784,2.2673,2.2672,2.2672,2.2596,2.2595,2.2594,2.2561,2.2561,2.2561,2.2561,2.2477,2.2474,2.2471,0,0,0,0,0,0,0,0,0,0,0,0,0,2.2725,2.2783,2.2674,2.2646,2.2643,2.2597,2.2595,2.2594,2.2561,2.2561,2.2561,2.2561,2.2478,2.2474,2.2471,2.2445,0,0,2.246,2.2458,0,0,0,0,0,0,0,0,2.2729,2.2721,2.2651,2.2648,2.2644,2.2589,2.2604,2.2544,2.2561,2.2592,2.2561,2.2562,2.2513,2.2506,2.2491,2.2441,2.2437,2.246,2.2457,2.2456,2.2455,0,0,0,0,0,0,0,2.2733,2.2724,2.2643,2.265,2.2646,2.2635,2.2627,2.2592,2.2552,2.2589,2.2586,2.2578,2.2511,2.2495,2.2489,2.2436,2.246,2.2456,2.2454,2.2453,2.2358,2.2358,0,0,0,0,0,0,2.2743,2.2728,2.2645,2.264,2.2688,2.2633,2.2624,2.2606,2.2552,2.2544,2.2578,2.2577,2.2501,2.2493,2.2486,2.2451,2.2456,2.2452,2.245,2.2358,2.2358,2.2358,0,0,0,0,0,0,2.2745,2.2736,2.2648,2.2683,2.2672,2.2631,2.2611,2.2604,2.2588,2.2544,2.2536,2.2569,2.2501,2.2491,2.2455,2.2448,2.2451,2.2448,2.2359,2.2358,2.2358,2.2382,0,0,0,0,0,0,2.2748,2.2737,2.2728,2.2684,2.267,2.2621,2.2611,2.2603,2.2583,2.2581,2.2534,2.2526,2.25,2.2461,2.2452,2.2443,2.2445,2.2359,2.2359,2.2358,2.2381,2.2382,2.2383,0,0,0,0,0,2.2753,2.2736,2.2728,2.2718,2.2658,2.2621,2.2612,2.2585,2.2583,2.2572,2.2544,2.2528,2.245,2.2458,2.2447,2.2437,2.236,2.2359,2.2358,2.2381,2.2382,2.2383,0,0,0,0,0,0,2.2779,2.273,2.272,2.2689,2.266,2.2615,2.2601,2.2587,2.2555,2.2554,2.2519,2.2509,2.2476,2.2453,2.2462,2.2408,2.2403,2.24,2.2424,2.2425,2.2425,2.2431,2.2442,0,0,0,0,0,2.2781,2.2757,2.2715,2.2692,2.2678,2.2642,2.2625,2.2606,2.2573,2.256,2.2528,2.2495,2.2463,2.2443,2.2411,2.2378,2.2366,2.2365,2.2366,2.2367,2.2364,2.2344,2.2343,2.2355,2.2355,2.2355,0,0,2.2786,2.2756,2.2742,2.2696,2.2671,2.2644,2.2632,2.2604,2.2583,2.2555,2.252,2.2495,2.2456,2.2421,2.2404,2.2401,2.2359,2.2366,2.2367,2.2364,2.2343,2.2342,2.2341,2.2354,2.2354,2.2354,0,0,2.278,2.2756,2.2734,2.2709,2.2672,2.2648,2.2643,2.2601,2.2584,2.2549,2.2527,2.25,2.2446,2.2419,2.2398,2.2381,2.2365,2.2372,2.2375,2.2355,2.2354,2.2353,2.2346,2.2345,2.237,2.237,2.237,0,2.279,2.2751,2.2724,2.2698,2.2677,2.2652,2.2628,2.2605,2.2558,2.2544,2.2541,2.2473,2.2444,2.2402,2.2399,2.2383,2.2374,2.2377,2.2357,2.2356,2.2354,2.2347,2.2345,2.2371,2.2371,2.237,2.237,0,2.2764,2.2737,2.2723,2.2681,2.2659,2.2634,2.2602,2.2582,2.2565,2.2542,2.2505,2.247,2.243,2.2419,2.2402,2.2374,2.2373,2.2364,2.2359,2.2355,2.2347,2.2345,2.2372,2.2372,2.2372,2.2371,0,0,2.2773,2.2716,2.2712,2.2692,2.2649,2.2626,2.2599,2.2563,2.2546,2.2514,2.249,2.2445,2.2436,2.2412,2.2391,2.2374,2.2362,2.2367,2.2365,2.2367,2.2329,2.2336,2.2333,2.2352,2.2351,2.235,2.2332,0,2.2761,2.2714,2.2689,2.2652,2.2626,2.2601,2.2577,2.2547,2.2524,2.2497,2.247,2.2438,2.243,2.2415,2.2397,2.2368,2.2354,2.2369,2.2326,2.2325,2.2337,2.233,2.2337,2.2321,2.2329,2.2329,2.2328,0,2.2741,2.2712,2.2673,2.2632,2.262,2.26,2.2563,2.2538,2.2503,2.2487,2.246,2.244,2.2408,2.2406,2.2361,2.2371,2.2352,2.2335,2.2334,2.2328,2.2326,2.2323,2.2315,2.2313,2.2324,2.2324,2.2324,0,2.275,2.2701,2.2671,2.2655,2.2607,2.2593,2.2572,2.2537,2.2516,2.2483,2.2469,2.2433,2.2413,2.2384,2.2353,2.2355,2.2311,2.2306,2.2295,2.2296,2.2287,2.2288,2.2275,2.2276,2.2276,2.2276,2.2276,0,2.274,2.2716,2.2675,2.2657,2.2629,2.2599,2.2572,2.2549,2.2518,2.2493,2.2468,2.2445,2.2406,2.2377,2.2353,2.2318,2.231,2.2294,2.2288,2.2296,2.2298,2.2283,2.2283,2.2275,2.2275,2.2275,2.2276,0,2.2746,2.2717,2.2683,2.264,2.2629,2.2611,2.2573,2.2553,2.2529,2.2498,2.2488,2.2449,2.2414,2.2381,2.2333,2.2316,2.2282,2.2274,2.2295,2.2291,2.2282,2.2283,2.2258,2.2253,2.2258,2.2258,2.2258,0,2.2741,2.2722,2.2678,2.2661,2.2641,2.2613,2.2592,2.2561,2.254,2.2498,2.2482,2.2446,2.2415,2.2359,2.2325,2.2288,2.2278,2.2272,2.2273,2.2281,2.2277,2.2279,2.2276,2.2273,2.2273,2.2273,2.2273,0,2.2734,2.2721,2.2693,2.266,2.2636,2.2608,2.2578,2.2565,2.2528,2.2505,2.247,2.2446,2.2398,2.2361,2.232,2.2296,2.2278,2.2274,2.2269,2.2277,2.2289,2.2282,2.2295,2.2274,2.2274,2.2274,2.2274,2.2274,2.2734,2.2716,2.2683,2.2652,2.2627,2.26,2.2579,2.2553,2.2523,2.2483,2.2466,2.243,2.2393,2.2337,2.2313,2.2282,2.2278,2.2272,2.227,2.2269,2.227,2.2295,2.2275,2.2275,2.2275,2.2275,2.2275,0,2.2725,2.2703,2.2675,2.2635,2.2611,2.2598,2.2565,2.2544,2.2513,2.2482,2.2452,2.2411,2.2375,2.2338,2.23,2.2282,2.2273,2.2273,2.2274,2.2268,2.2276,2.2284,2.2281,2.2281,2.2281,2.2281,2.2281,2.2281,2.2718,2.2688,2.267,2.2626,2.2603,2.2569,2.2551,2.2525,2.25,2.2456,2.2426,2.2403,2.2369,2.2328,2.2293,2.2283,2.227,2.2272,2.226,2.2268,2.2268,2.2267,2.2274,2.227,2.227,2.2254,2.2254,2.2254]}]]